sat.trackr.live / text

‹ back to catalog

ONEWEB-0331

NORAD 49198 · 2021-083N

PAYLOAD ACTIVE UNKNOWN

§ Identity

Operator
Country
UK
Launch date
2021-09-14
Launch site
TYMSC
Launch vehicle
Mass (kg)
RCS (m²)

Purposes: comms

External: N2YO · Heavens-Above · Gunter

§ Orbital elements

Epoch: 2026-05-25T01:56:00.404736Z

Period
109.20 min
Inclination
87.9170°
Eccentricity
0.0002151
Mean motion
13.18686122 rev/d
Perigee alt
1,188.1 km
Apogee alt
1,191.4 km
Semi-major
7,567.9 km
B*
-7.0827e-5
RAAN
340.0476°
Arg perigee
92.6341°
Mean anomaly
267.5037°
Rev number
22,696

§ Raw data

ONEWEB-03311 49198U 21083N   26145.08056024 -.00000015  00000+0 -70827-4 0  99932 49198  87.9170 340.0476 0002151  92.6341 267.5037 13.18686122226966

JSON: /api/v1/satellites/49198 · /tle

For live sub-satellite position, see the globe view (requires WebGL).

§ Visibility from observer

Set your observer location to see the next 7 days of passes ≥ 10°. The values pass through the URL so the page stays shareable.

No JS? Fill the form by hand. The geolocation button needs JavaScript.